Location: Drummondville
(45.8830°N, 72.4830°W)
Time: 18:04:16
(UTC-05:00)

OTV 5 (USA 277) - Pass Details

Date: 13 November 2017
Orbit: 404 x 417 km, 43.0° (Epoch: 07 September)

Event Time Altitude Azimuth Distance (km) Brightness Sun altitude
Exits shadow 06:02:02 - 261° (W) 1,538 ? -8.2°
Reaches altitude 10° 06:02:15 10° 261° (W) 1,456 ? -8.2°
Maximum altitude 06:05:26 49° 185° (S) 526 ? -7.6°
Drops below altitude 10° 06:08:37 10° 109° (ESE) 1,456 ? -7.1°
Sets 06:10:45 0° 104° (ESE) 2,315 ? -6.8°
